Location: Prairie State College
(41.5244°N, 87.6382°W)
Time: 23:37:05
(UTC-05:00)

MSX - Visible Passes

Search period start: 18 April 2015 00:00
Search period end: 28 April 2015 00:00
Orbit: 894 x 907 km, 98.7° (Epoch: 14 April)

Date Brightness Start Highest point End Pass type
(mag) Time Alt. Az. Time Alt. Az. Time Alt. Az.
18 Apr 4.7 20:41:05 10° S 20:46:36 49° W 20:52:10 10° NNW visible
19 Apr 4.8 20:43:56 10° S 20:49:25 47° W 20:54:56 10° NNW visible
20 Apr 5.0 20:46:47 10° S 20:52:14 44° W 20:57:42 10° NNW visible
21 Apr 5.1 20:49:40 10° SSW 20:55:03 41° W 21:00:28 10° NNW visible
22 Apr 5.2 20:52:32 10° SSW 20:57:53 39° W 21:03:13 10° NNW visible
23 Apr 5.3 20:55:25 10° SSW 21:00:42 37° W 21:05:58 10° NNW visible
24 Apr 5.4 20:58:19 10° SSW 21:03:32 35° W 21:08:43 10° NNW visible
25 Apr 5.5 21:01:13 10° SSW 21:06:21 33° W 21:11:28 10° NNW visible
26 Apr 5.6 21:04:07 10° SSW 21:09:11 31° W 21:14:13 10° NW visible
27 Apr 5.6 21:07:02 10° SSW 21:12:01 30° W 21:16:56 10° NW visible
